Content
SEND FEEDBACK

Daily
Averages
Monthly
Summary
United States of America

CHESTERFIELD, MISSOURI


Home > North America > United States > Missouri
Elevation: 559 feet     Latitude: 38 41N     Longitude: 090 31W

WEATHER
 
SELECT A DAY
Number of Records: 208,231;   Date Range: 1/1/95 - 12/17/14
 
SHARE

PRINT THIS DATA

[ ← Previous Day ]
WEATHER ALMANAC - APRIL 17, 2013
[ Next Day → ]
[ °C ]   °F
Weather ElementAverageHighLow
Temperature62.1 °F84.9 °F (4:51 pm)50 °F (5:21 am)
Dewpoint54.1 °F66 °F (2:51 pm)45 °F (1:51 am)
Humidity77.1 %94 % (8:36 am)46 % (4:51 pm)
Barometer29.97 in30.13 in (1:51 am)29.65 in (11:51 pm)
Wind Speed12 mph23 mph (4:51 pm)
Wind Gust28.8 mph (3:51 pm)
Weather ElementAverage
Visibility5.7 mi
Wind DirectionESE (122.3 °)

Weather ElementTotal
Precipitation0.01 in
Cooling Degree Days2.5 (Base 65)
Growing Degree Days17.5 (Base 50)
Averaged from 39 records on April 17, 2013
WEATHER CONDITIONS BREAKOUT
WIND DIRECTION BREAKOUT
WEATHER BY HOUR - APRIL 17, 2013
[ °C ]   °F
Local TimeTemperatureDewpointHumidityBarometerVisibilityWind DirectionWind SpeedGust SpeedPrecipitationEventsConditions
1:51 AM51.1 °F45.0 °F80 %30.13 in10.0 miENE (60°)4.6 mphOvercast
2:38 AM51.8 °F46.4 °F82 %30.11 in9.0 miENE (70°)5.8 mphOvercast
2:51 AM51.1 °F46.0 °F83 %30.12 in9.0 miENE (70°)6.9 mphOvercast
3:25 AM51.8 °F46.4 °F82 %30.11 in10.0 miNE (50°)5.8 mphOvercast
3:51 AM51.1 °F46.0 °F83 %30.11 in10.0 miENE (60°)6.9 mphOvercast
4:32 AM51.8 °F46.4 °F82 %30.10 in8.0 miEast (90°)9.2 mphOvercast
4:51 AM51.1 °F46.9 °F86 %30.10 in6.0 miEast (90°)8.1 mphOvercast
5:04 AM51.8 °F46.4 °F82 %30.08 in4.0 miEast (90°)10.4 mph0.00 inLight Drizzle
5:21 AM50.0 °F46.4 °F87 %30.08 in3.0 miEast (100°)9.2 mph0.00 inLight Drizzle
5:51 AM51.1 °F48.0 °F89 %30.06 in3.0 miEast (80°)9.2 mph0.00 inLight Drizzle
6:12 AM51.8 °F48.2 °F88 %30.06 in3.0 miESE (120°)10.4 mph0.00 inLight Drizzle
6:48 AM51.8 °F48.2 °F88 %30.07 in2.5 miESE (110°)8.1 mph0.00 inLight Drizzle
6:51 AM51.1 °F48.0 °F89 %30.07 in2.5 miEast (100°)8.1 mph0.00 inLight Drizzle
7:22 AM51.8 °F48.2 °F88 %30.07 in1.5 miEast (100°)10.4 mph0.00 inLight Drizzle
7:49 AM51.8 °F48.2 °F88 %30.08 in0.5 miEast (90°)6.9 mph0.00 inFogFog
7:51 AM52.0 °F48.9 °F89 %30.09 in0.5 miEast (100°)6.9 mph0.00 inFogFog
8:36 AM51.8 °F50.0 °F94 %30.08 in0.2 miEast (90°)9.2 mphFogFog
8:48 AM51.8 °F50.0 °F94 %30.07 in0.2 miESE (110°)9.2 mphFogFog
8:51 AM52.0 °F50.0 °F93 %30.07 in0.2 miEast (100°)8.1 mphFogFog
9:27 AM53.6 °F51.8 °F94 %30.05 in0.8 miSE (130°)12.7 mphOvercast
9:51 AM55.0 °F53.1 °F93 %30.05 in1.0 miSE (130°)16.1 mphOvercast
10:33 AM57.2 °F53.6 °F88 %30.02 in2.0 miSE (130°)10.4 mphOvercast
10:51 AM60.1 °F55.0 °F83 %30.01 in2.5 miSE (140°)12.7 mphHaze
11:11 AM62.6 °F57.2 °F82 %30.00 in3.0 miSE (140°)12.7 mphHaze
11:25 AM64.4 °F57.2 °F77 %29.99 in5.0 miSSE (160°)12.7 mph19.6 mphHaze
11:39 AM66.2 °F59.0 °F78 %29.99 in5.0 miSouth (170°)12.7 mphHaze
11:51 AM68.0 °F60.1 °F76 %29.98 in5.0 miSouth (180°)11.5 mphHaze
12:51 PM73.0 °F63.0 °F71 %29.95 in8.0 miSSE (150°)11.5 mphMostly Cloudy
1:51 PM75.9 °F63.0 °F64 %29.89 in9.0 miSouth (170°)20.7 mph26.5 mphMostly Cloudy
2:51 PM81.0 °F66.0 °F60 %29.86 in9.0 miSSE (150°)16.1 mph23.0 mph0.01 inMostly Cloudy
3:51 PM84.0 °F64.0 °F51 %29.81 in10.0 miSSE (160°)20.7 mph28.8 mphMostly Cloudy
4:51 PM84.9 °F62.1 °F46 %29.79 in10.0 miSSE (160°)23.0 mph28.8 mphMostly Cloudy
5:51 PM82.9 °F64.9 °F54 %29.76 in10.0 miSE (140°)17.3 mph28.8 mphMostly Cloudy
6:51 PM81.0 °F64.0 °F56 %29.73 in10.0 miSSE (150°)13.8 mphMostly Cloudy
7:51 PM81.0 °F59.0 °F47 %29.71 in10.0 miSSE (160°)15.0 mph23.0 mphOvercast
8:51 PM79.0 °F63.0 °F58 %29.71 in10.0 miSSE (150°)18.4 mph23.0 mphOvercast
9:51 PM78.1 °F63.0 °F60 %29.71 in10.0 miSouth (170°)16.1 mph26.5 mphOvercast
10:51 PM78.1 °F63.0 °F60 %29.68 in10.0 miSouth (180°)17.3 mph26.5 mphOvercast
11:51 PM77.0 °F63.0 °F62 %29.65 in10.0 miSouth (170°)21.9 mph25.3 mphOvercast
Hourly data recorded from KSTL, located miles away from Chesterfield, Missouri







STORIES FROM OUR PARTNERS